H1 CPF 2 NER 2024 5 16 9 137 01 glonass140 H2 1903001 9140 44299 2024 5 16 0 0 0 2024 5 19 23 45 0 900 1 1 0 0 0 1 H9 10 0 60446 0.00000 0 16853064.611 4492347.773 18634688.744 10 0 60446 900.00000 0 14547073.006 5156266.135 20331597.084 10 0 60446 1800.00000 0 12123946.997 6053121.856 21634469.268 10 0 60446 2700.00000 0 9650802.348 7180387.734 22518170.597 10 0 60446 3600.00000 0 7194334.713 8523266.323 22965675.359 10 0 60446 4500.00000 0 4818236.213 10055136.622 22968385.853 10 0 60446 5400.00000 0 2580751.469 11738507.653 22526291.593 10 0 60446 6300.00000 0 532472.718 13526439.957 21647966.291 10 0 60446 7200.00000 0 -1285536.271 15364376.811 20350402.925 10 0 60446 8100.00000 0 -2843211.364 17192310.221 18658689.862 10 0 60446 9000.00000 0 -4122494.694 18947192.886 16605533.661 10 0 60446 9900.00000 0 -5117836.097 20565496.989 14230636.829 10 0 60446 10800.00000 0 -5836169.357 21985814.307 11579941.364 10 0 60446 11700.00000 0 -6296364.804 23151390.017 8704751.419 10 0 60446 12600.00000 0 -6528181.435 24012484.761 5660750.852 10 0 60446 13500.00000 0 -6570762.561 24528466.174 2506933.611 10 0 60446 14400.00000 0 -6470738.145 24669541.843 -695533.166 10 0 60446 15300.00000 0 -6280013.677 24418060.129 -3884491.755 10 0 60446 16200.00000 0 -6053338.883 23769323.074 -6997999.409 10 0 60446 17100.00000 0 -5845759.176 22731875.818 -9975533.350 10 0 60446 18000.00000 0 -5710058.063 21327258.815 -12759171.387 10 0 60446 18900.00000 0 -5694299.424 19589231.703 -15294724.641 10 0 60446 19800.00000 0 -5839574.684 17562499.987 -17532799.711 10 0 60446 20700.00000 0 -6178051.425 15300996.734 -19429768.853 10 0 60446 21600.00000 0 -6731407.420 12865790.340 -20948628.617 10 0 60446 22500.00000 0 -7509717.854 10322705.282 -22059729.584 10 0 60446 23400.00000 0 -8510844.328 7739755.027 -22741362.384 10 0 60446 24300.00000 0 -9720353.025 5184494.182 -22980188.106 10 0 60446 25200.00000 0 -11111966.905 2721400.455 -22771504.274 10 0 60446 26100.00000 0 -12648534.148 409395.778 -22119340.830 10 0 60446 27000.00000 0 -14283473.006 -1700389.938 -21036383.978 10 0 60446 27900.00000 0 -15962632.918 -3566519.211 -19543729.123 10 0 60446 28800.00000 0 -17626493.893 -5158732.509 -17670467.606 10 0 60446 29700.00000 0 -19212611.603 -6458957.467 -15453115.346 10 0 60446 30600.00000 0 -20658205.047 -7461800.588 -12934894.659 10 0 60446 31500.00000 0 -21902777.375 -8174502.197 -10164883.704 10 0 60446 32400.00000 0 -22890658.995 -8616358.277 -7197050.739 10 0 60446 33300.00000 0 -23573365.323 -8817635.490 -4089192.778 10 0 60446 34200.00000 0 -23911669.463 -8818027.261 -901800.343 10 0 60446 35100.00000 0 -23877302.343 -8664718.189 2303128.565 10 0 60446 36000.00000 0 -23454208.812 -8410140.595 5463301.195 10 0 60446 36900.00000 0 -22639307.193 -8109519.773 8517344.990 10 0 60446 37800.00000 0 -21442721.013 -7818313.131 11406000.490 10 0 60446 38700.00000 0 -19887473.927 -7589652.404 14073268.794 10 0 60446 39600.00000 0 -18008661.484 -7471897.484 16467491.363 10 0 60446 40500.00000 0 -15852135.154 -7506405.125 18542341.787 10 0 60446 41400.00000 0 -13472754.108 -7725606.299 20257711.222 10 0 60446 42300.00000 0 -10932277.893 -8151472.553 21580471.527 10 0 60446 43200.00000 0 -8296987.489 -8794435.226 22485102.744 10 0 60446 44100.00000 0 -5635132.960 -9652802.310 22954174.215 10 0 60446 45000.00000 0 -3014312.570 -10712697.079 22978671.330 10 0 60446 45900.00000 0 -498890.588 -11948521.026 22558162.660 10 0 60446 46800.00000 0 1852440.907 -13323922.157 21700804.931 10 0 60446 47700.00000 0 3988856.956 -14793228.898 20423186.000 10 0 60446 48600.00000 0 5869262.189 -16303290.830 18750008.673 10 0 60446 49500.00000 0 7463745.174 -17795650.654 16713620.854 10 0 60446 50400.00000 0 8754565.553 -19208957.978 14353400.162 10 0 60446 51300.00000 0 9736633.962 -20481525.298 11715003.729 10 0 60446 52200.00000 0 10417465.400 -21553920.290 8849496.394 10 0 60446 53100.00000 0 10816608.411 -22371486.488 5812372.963 10 0 60446 54000.00000 0 10964574.100 -22886686.927 2662492.365 10 0 60446 54900.00000 0 10901309.950 -23061172.143 -539056.497 10 0 60446 55800.00000 0 10674282.495 -22867484.917 -3730135.668 10 0 60446 56700.00000 0 10336249.610 -22290328.992 -6848763.178 10 0 60446 57600.00000 0 9942816.455 -21327346.888 -9834318.656 10 0 60446 58500.00000 0 9549878.602 -19989372.447 -12628725.726 10 0 60446 59400.00000 0 9211060.889 -18300145.680 -15177587.637 10 0 60446 60300.00000 0 8975261.065 -16295500.144 -17431253.394 10 0 60446 61200.00000 0 8884403.064 -14022055.375 -19345792.893 10 0 60446 62100.00000 0 8971496.035 -11535467.821 -20883861.405 10 0 60446 63000.00000 0 9259082.443 -8898312.440 -22015435.936 10 0 60446 63900.00000 0 9758142.121 -6177682.814 -22718408.531 10 0 60446 64800.00000 0 10467499.834 -3442609.566 -22979024.479 10 0 60446 65700.00000 0 11373762.585 -761404.572 -22792156.452 10 0 60446 66600.00000 0 12451790.330 1800958.286 -22161408.846 10 0 60446 67500.00000 0 13665681.101 4185316.624 -21099050.019 10 0 60446 68400.00000 0 14970229.555 6340544.236 -19625773.473 10 0 60446 69300.00000 0 16312797.727 8225434.283 -17770292.540 10 0 60446 70200.00000 0 17635519.094 9810162.813 -15568776.477 10 0 60446 71100.00000 0 18877742.711 11077272.226 -13064139.120 10 0 60446 72000.00000 0 19978613.826 12022134.596 -10305194.398 10 0 60446 72900.00000 0 20879681.450 12652876.960 -7345695.750 10 0 60446 73800.00000 0 21527422.207 12989773.538 -4243278.965 10 0 60446 74700.00000 0 21875573.352 13064132.518 -1058330.027 10 0 60446 75600.00000 0 21887176.083 12916726.485 2147198.962 10 0 60446 76500.00000 0 21536242.794 12595834.861 5311001.741 10 0 60446 77400.00000 0 20808978.040 12154982.930 8371633.243 10 0 60446 78300.00000 0 19704502.114 11650474.577 11269704.087 10 0 60446 79200.00000 0 18235047.325 11138824.136 13949030.755 10 0 60446 80100.00000 0 16425619.302 10674196.469 16357719.155 10 0 60446 81000.00000 0 14313138.093 10305963.465 18449161.119 10 0 60446 81900.00000 0 11945095.372 10076479.692 20182925.409 10 0 60446 82800.00000 0 9377783.941 10019170.212 21525527.154 10 0 60446 83700.00000 0 6674173.055 10157010.150 22451062.224 10 0 60446 84600.00000 0 3901517.251 10501458.960 22941695.708 10 0 60446 85500.00000 0 1128796.933 11051893.357 22987996.349 10 0 60447 0.00000 0 -1575904.332 11795562.071 22589111.630 10 0 60447 900.00000 0 -4147980.236 12708064.641 21752780.523 10 0 60447 1800.00000 0 -6528731.195 13754333.427 20495184.580 10 0 60447 2700.00000 0 -8667548.806 14890079.755 18840639.372 10 0 60447 3600.00000 0 -10523762.806 16063643.686 16821132.029 10 0 60447 4500.00000 0 -12068076.740 17218171.554 14475712.803 10 0 60447 5400.00000 0 -13283533.561 18294031.173 11849751.206 10 0 60447 6300.00000 0 -14165971.729 19231364.588 8994069.841 10 0 60447 7200.00000 0 -14723953.218 19972672.059 5963971.439 10 0 60447 8100.00000 0 -14978166.635 20465319.183 2818176.866 10 0 60447 9000.00000 0 -14960330.416 20663861.701 -382306.211 10 0 60447 9900.00000 0 -14711642.029 20532089.651 -3575362.548 10 0 60447 10800.00000 0 -14280838.298 20044703.812 -6698973.768 10 0 60447 11700.00000 0 -13721948.491 19188552.414 -9692424.571 10 0 60447 12600.00000 0 -13091835.078 17963374.329 -12497486.847 10 0 60447 13500.00000 0 -12447626.245 16382015.562 -15059558.166 10 0 60447 14400.00000 0 -11844149.143 14470107.940 -17328731.828 10 0 60447 15300.00000 0 -11331472.993 12265221.604 -19260776.923 10 0 60447 16200.00000 0 -10952666.736 9815525.148 -20818008.652 10 0 60447 17100.00000 0 -10741866.884 7178008.030 -21970031.300 10 0 60447 18000.00000 0 -10722738.228 4416338.527 -22694338.829 10 0 60447 18900.00000 0 -10907393.354 1598445.893 -22976760.868 10 0 60447 19800.00000 0 -11295817.525 -1206072.878 -22811745.001 10 0 60447 20700.00000 0 -11875823.956 -3928613.762 -22202469.463 10 0 60447 21600.00000 0 -12623541.978 -6504183.070 -21160783.749 10 0 60447 22500.00000 0 -13504417.860 -8873862.400 -19706978.058 10 0 60447 23400.00000 0 -14474686.144 -10987018.427 -17869385.942 10 0 60447 24300.00000 0 -15483249.240 -12803165.566 -15683827.902 10 0 60447 25200.00000 0 -16473885.520 -14293404.197 -13192906.948 10 0 60447 26100.00000 0 -17387691.993 -15441375.083 -10445170.246 10 0 60447 27000.00000 0 -18165657.637 -16243691.202 -7494153.776 10 0 60447 27900.00000 0 -18751257.769 -16709830.437 -4397329.415 10 0 60447 28800.00000 0 -19092959.047 -16861495.465 -1214975.905 10 0 60447 29700.00000 0 -19146528.580 -16731469.851 1991003.237 10 0 60447 30600.00000 0 -18877049.137 -16362020.683 5158290.893 10 0 60447 31500.00000 0 -18260555.196 -15802917.121 8225372.090 10 0 60447 32400.00000 0 -17285220.886 -15109150.272 11132730.058 10 0 60447 33300.00000 0 -15952050.018 -14338451.986 13823999.057 10 0 60447 34200.00000 0 -14275039.615 -13548718.172 16247051.653 10 0 60447 35100.00000 0 -12280810.449 -12795445.643 18354999.871 10 0 60447 36000.00000 0 -10007720.348 -12129290.294 20107091.701 10 0 60447 36900.00000 0 -7504497.405 -11593848.791 21469486.781 10 0 60447 37800.00000 0 -4828449.832 -11223756.039 22415897.637 10 0 60447 38700.00000 0 -2043326.309 -11043177.195 22928085.506 10 0 60447 39600.00000 0 783085.266 -11064756.359 22996202.481 10 0 60447 40500.00000 0 3581522.389 -11289065.012 22618974.463 10 0 60447 41400.00000 0 6283871.285 -11704572.643 21803722.091 10 0 60447 42300.00000 0 8825742.047 -12288140.515 20566219.574 10 0 60447 43200.00000 0 11148890.732 -13006018.022 18930393.960 10 0 60447 44100.00000 0 13203389.762 -13815300.447 16927870.081 10 0 60447 45000.00000 0 14949458.000 -14665787.847 14597369.043 10 0 60447 45900.00000 0 16358875.705 -15502168.111 11983970.710 10 0 60447 46800.00000 0 17415926.280 -16266433.568 9138253.164 10 0 60447 47700.00000 0 18117826.016 -16900430.439 6115324.540 10 0 60447 48600.00000 0 18474624.050 -17348434.484 2973764.916 10 0 60447 49500.00000 0 18508576.641 -17559644.563 -225502.142 10 0 60447 50400.00000 0 18253021.781 -17490488.738 -3420387.014 10 0 60447 51300.00000 0 17750801.156 -17106644.902 -6548837.807 10 0 60447 52200.00000 0 17052295.614 -16384689.497 -9550047.064 10 0 60447 53100.00000 0 16213156.808 -15313303.133 -12365637.550 10 0 60447 54000.00000 0 15291830.714 -13893980.415 -14940803.543 10 0 60447 54900.00000 0 14346977.751 -12141211.987 -17225384.778 10 0 60447 55800.00000 0 13434898.824 -10082129.017 -19174851.404 10 0 60447 56700.00000 0 12607076.530 -7755623.071 -20751180.102 10 0 60447 57600.00000 0 11907935.964 -5210976.452 -21923603.657 10 0 60447 58500.00000 0 11372920.371 -2506058.852 -22669218.798 10 0 60447 59400.00000 0 11026963.559 294835.432 -22973439.960 10 0 60447 60300.00000 0 10883424.133 3123420.254 -22830289.729 10 0 60447 61200.00000 0 10943527.043 5910019.332 -22242519.880 10 0 60447 62100.00000 0 11196336.314 8586228.649 -21221560.397 10 0 60447 63000.00000 0 11619260.261 11087528.662 -19787297.185 10 0 60447 63900.00000 0 12179067.695 13355737.328 -17967682.697 10 0 60447 64800.00000 0 12833371.899 15341201.678 -15798187.053 10 0 60447 65700.00000 0 13532519.043 17004636.650 -13321100.493 10 0 60447 66600.00000 0 14221800.430 18318534.713 -10584701.168 10 0 60447 67500.00000 0 14843894.070 19268088.147 -7642305.060 10 0 60447 68400.00000 0 15341431.298 19851586.482 -4551217.324 10 0 60447 69300.00000 0 15659578.822 20080273.907 -1371606.459 10 0 60447 70200.00000 0 15748526.100 19977674.545 1834675.733 10 0 60447 71100.00000 0 15565772.134 19578415.903 5005304.427 10 0 60447 72000.00000 0 15078114.578 18926602.125 8078697.835 10 0 60447 72900.00000 0 14263256.973 18073807.428 10995214.718 10 0 60447 73800.00000 0 13110966.361 17076775.873 13698309.830 10 0 60447 74700.00000 0 11623732.734 15994925.494 16135624.840 10 0 60447 75600.00000 0 9816902.879 14887762.514 18259994.111 10 0 60447 76500.00000 0 7718283.200 13812314.462 20030346.691 10 0 60447 77400.00000 0 5367228.186 12820689.631 21412488.222 10 0 60447 78300.00000 0 2813252.340 11957864.404 22379749.010 10 0 60447 79200.00000 0 114222.801 11259790.028 22913487.170 10 0 60447 80100.00000 0 -2665793.103 10751896.793 23003438.436 10 0 60447 81000.00000 0 -5458937.318 10448056.922 22647906.997 10 0 60447 81900.00000 0 -8196129.205 10350048.399 21853794.403 10 0 60447 82800.00000 0 -10809687.662 10447541.381 20636466.318 10 0 60447 83700.00000 0 -13235900.378 10718607.304 19019459.546 10 0 60447 84600.00000 0 -15417435.456 11130729.382 17034034.419 10 0 60447 85500.00000 0 -17305496.851 11642272.496 14718580.305 10 0 60448 0.00000 0 -18861635.176 12204351.418 12117884.759 10 0 60448 900.00000 0 -20059140.202 12763020.011 9282277.770 10 0 60448 1800.00000 0 -20883955.434 13261689.348 6266669.909 10 0 60448 2700.00000 0 -21335079.504 13643674.600 3129497.285 10 0 60448 3600.00000 0 -21424435.246 13854762.906 -68403.753 10 0 60448 4500.00000 0 -21176212.481 13845694.086 -3264972.201 10 0 60448 5400.00000 0 -20625711.492 13574448.922 -6398125.497 10 0 60448 6300.00000 0 -19817735.337 13008247.341 -9406966.694 10 0 60448 7200.00000 0 -18804598.342 12125170.705 -12232971.893 10 0 60448 8100.00000 0 -17643834.428 10915337.931 -14821134.284 10 0 60448 9000.00000 0 -16395701.835 9381583.801 -17121041.939 10 0 60448 9900.00000 0 -15120589.609 7539608.704 -19087867.623 10 0 60448 10800.00000 0 -13876435.493 5417591.364 -20683250.664 10 0 60448 11700.00000 0 -12716264.498 3055278.713 -21876053.107 10 0 60448 12600.00000 0 -11685952.406 502589.312 -22642974.791 10 0 60448 13500.00000 0 -10822308.904 -2182212.752 -22969014.902 10 0 60448 14400.00000 0 -10151561.534 -4934698.307 -22847770.555 10 0 60448 15300.00000 0 -9688304.634 -7686717.540 -22281566.215 10 0 60448 16200.00000 0 -9434957.651 -10369006.921 -21281411.126 10 0 60448 17100.00000 0 -9381755.552 -12913850.002 -19866785.334 10 0 60448 18000.00000 0 -9507271.394 -15257681.071 -18065258.313 10 0 60448 18900.00000 0 -9779448.400 -17343522.908 -15911947.663 10 0 60448 19800.00000 0 -10157097.119 -19123156.847 -13448828.521 10 0 60448 20700.00000 0 -10591793.387 -20558934.519 -10723907.568 10 0 60448 21600.00000 0 -11030095.624 -21625155.905 -7790278.267 10 0 60448 22500.00000 0 -11415986.408 -22308956.722 -4705076.525 10 0 60448 23400.00000 0 -11693433.733 -22610669.018 -1528358.100 10 0 60448 24300.00000 0 -11808962.373 -22543641.326 1678079.380 10 0 60448 25200.00000 0 -11714125.572 -22133527.670 4851905.806 10 0 60448 26100.00000 0 -11367771.779 -21417077.187 7931474.937 10 0 60448 27000.00000 0 -10738010.180 -20440477.169 10857023.394 10 0 60448 27900.00000 0 -9803791.894 -19257320.893 13571828.653 10 0 60448 28800.00000 0 -8556040.220 -17926287.066 16023303.583 10 0 60448 29700.00000 0 -6998282.537 -16508629.270 18164006.790 10 0 60448 30600.00000 0 -5146757.508 -15065581.158 19952550.031 10 0 60448 31500.00000 0 -3029993.130 -13655786.030 21354386.280 10 0 60448 32400.00000 0 -687873.117 -12332857.727 22342464.605 10 0 60448 33300.00000 0 1829769.978 -11143173.778 22897740.594 10 0 60448 34200.00000 0 4464977.108 -10123991.643 23009533.846 10 0 60448 35100.00000 0 7153826.053 -9301965.256 22675726.692 10 0 60448 36000.00000 0 9828847.382 -8692122.306 21902801.107 10 0 60448 36900.00000 0 12421594.522 -8297343.781 20705713.417 10 0 60448 37800.00000 0 14865263.148 -8108366.521 19107609.094 10 0 60448 38700.00000 0 17097252.991 -8104308.194 17139382.620 10 0 60448 39600.00000 0 19061567.242 -8253692.531 14839089.983 10 0 60448 40500.00000 0 20710951.112 -8515932.064 12251224.037 10 0 60448 41400.00000 0 22008681.480 -8843206.598 9425865.419 10 0 60448 42300.00000 0 22929933.468 -9182658.987 6417724.226 10 0 60448 43200.00000 0 23462667.019 -9478816.349 3285089.869 10 0 60448 44100.00000 0 23607996.140 -9676134.956 88708.565 10 0 60448 45000.00000 0 23380024.849 -9721561.516 -3109390.332 10 0 60448 45900.00000 0 22805156.071 -9567002.265 -6247096.626 10 0 60448 46800.00000 0 21920901.810 -9171594.818 -9263426.831 10 0 60448 47700.00000 0 20774244.028 -8503685.515 -12099713.137 10 0 60448 48600.00000 0 19419614.681 -7542427.163 -14700750.161 10 0 60448 49500.00000 0 17916579.629 -6278927.762 -17015876.538 10 0 60448 50400.00000 0 16327323.819 -4716899.674 -18999969.562 10 0 60448 51300.00000 0 14714043.662 -2872779.664 -20614332.822 10 0 60448 52200.00000 0 13136356.555 -775312.602 -21827458.910 10 0 60448 53100.00000 0 11648836.856 1535385.716 -22615651.744 10 0 60448 54000.00000 0 10298782.270 4009249.061 -22963495.881 10 0 60448 54900.00000 0 9124304.842 6588106.563 -22864163.249 10 0 60448 55800.00000 0 8152826.999 9207877.600 -22319550.923 10 0 60448 56700.00000 0 7400045.850 11801024.766 -21340246.970 10 0 60448 57600.00000 0 6869409.074 14299162.786 -19945324.769 10 0 60448 58500.00000 0 6552123.937 16635714.457 -18161969.665 10 0 60448 59400.00000 0 6427698.276 18748502.548 -16024945.222 10 0 60448 60300.00000 0 6464989.594 20582169.160 -13575909.613 10 0 60448 61200.00000 0 6623716.719 22090321.207 -10862595.836 10 0 60448 62100.00000 0 6856368.712 23237312.267 -7937872.297 10 0 60448 63000.00000 0 7110428.800 23999586.496 -4858702.830 10 0 60448 63900.00000 0 7330817.675 24366528.894 -1685027.382 10 0 60448 64800.00000 0 7462451.334 24340787.323 1521413.807 10 0 60448 65700.00000 0 7452803.910 23938054.086 4698288.621 10 0 60448 66600.00000 0 7254366.061 23186317.872 7783889.617 10 0 60448 67500.00000 0 6826894.274 22124619.229 10718334.380 10 0 60448 68400.00000 0 6139355.657 20801363.459 13444726.019 10 0 60448 69300.00000 0 5171486.081 19272263.232 15910251.264 10 0 60448 70200.00000 0 3914896.119 17597998.292 18067195.320 10 0 60448 71100.00000 0 2373678.433 15841690.879 19873854.687 10 0 60448 72000.00000 0 564491.246 14066302.631 21295331.363 10 0 60448 72900.00000 0 -1483885.660 12332061.244 22304194.481 10 0 60448 73800.00000 0 -3731504.237 10694023.386 22880998.013 10 0 60448 74700.00000 0 -6128671.661 9199874.194 23014645.866 10 0 60448 75600.00000 0 -8617785.817 7888053.477 22702598.476 10 0 60448 76500.00000 0 -11135507.837 6786285.085 21950917.678 10 0 60448 77400.00000 0 -13615183.042 5910569.168 20774149.340 10 0 60448 78300.00000 0 -15989411.503 5264678.031 19195045.940 10 0 60448 79200.00000 0 -18192663.226 4840175.626 17244133.917 10 0 60448 80100.00000 0 -20163830.862 4616959.259 14959133.234 10 0 60448 81000.00000 0 -21848615.120 4564300.598 12384239.260 10 0 60448 81900.00000 0 -23201644.507 4642342.424 9569279.523 10 0 60448 82800.00000 0 -24188241.507 4803988.559 6568760.419 10 0 60448 83700.00000 0 -24785761.560 4997107.835 3440821.185 10 0 60448 84600.00000 0 -24984448.517 5166959.555 246114.477 10 0 60448 85500.00000 0 -24787770.126 5258738.228 -2953365.299 10 0 60449 0.00000 0 -24212218.699 5220129.921 -6095483.168 10 0 60449 900.00000 0 -23286584.049 5003771.578 -9119172.595 10 0 60449 1800.00000 0 -22050729.161 4569508.434 -11965624.267 10 0 60449 2700.00000 0 -20553918.272 3886352.681 -14579436.633 10 0 60449 3600.00000 0 -18852767.676 2934058.943 -16909700.971 10 0 60449 4500.00000 0 -17008904.815 1704248.064 -18911000.787 10 0 60449 5400.00000 0 -15086433.843 201029.743 -20544305.160 10 0 60449 6300.00000 0 -13149314.158 -1558904.404 -21777737.969 10 0 60449 7200.00000 0 -11258762.102 -3546723.307 -22587207.428 10 0 60449 8100.00000 0 -9470785.123 -5722417.757 -22956883.176 10 0 60449 9000.00000 0 -7833951.991 -8036241.848 -22879511.167 10 0 60449 9900.00000 0 -6387492.785 -10430575.418 -22356559.859 10 0 60449 10800.00000 0 -5159808.263 -12842130.391 -21398194.519 10 0 60449 11700.00000 0 -4167450.907 -15204409.244 -20023079.902 10 0 60449 12600.00000 0 -3414619.873 -17450312.892 -18258014.987 10 0 60449 13500.00000 0 -2893190.216 -19514788.818 -16137406.865 10 0 60449 14400.00000 0 -2583273.993 -21337408.355 -13702594.166 10 0 60449 15300.00000 0 -2454288.185 -22864764.893 -11001033.562 10 0 60449 16200.00000 0 -2466482.751 -24052592.295 -8085365.757 10 0 60449 17100.00000 0 -2572862.511 -24867514.672 -5012379.913 10 0 60449 18000.00000 0 -2721419.818 -25288354.342 -1841897.652 10 0 60449 18900.00000 0 -2857581.854 -25306943.667 1364400.587 10 0 60449 19800.00000 0 -2926767.422 -24928407.616 4544182.987 10 0 60449 20700.00000 0 -2876943.789 -24170906.436 7635683.109 10 0 60449 21600.00000 0 -2661074.438 -23064850.667 10578901.607 10 0 60449 22500.00000 0 -2239353.708 -21651622.959 13316769.208 10 0 60449 23400.00000 0 -1581133.707 -19981861.677 15796248.330 10 0 60449 24300.00000 0 -666462.261 -18113379.365 17969352.422 10 0 60449 25200.00000 0 512832.633 -16108803.867 19794064.123 10 0 60449 26100.00000 0 1952557.233 -14033040.961 21235135.568 10 0 60449 27000.00000 0 3636089.771 -11950664.094 22264756.749 10 0 60449 27900.00000 0 5534844.249 -9923339.190 22863080.463 10 0 60449 28800.00000 0 7609241.340 -8007390.560 23018595.033 10 0 60449 29700.00000 0 9810146.753 -6251607.598 22728338.773 10 0 60449 30600.00000 0 12080718.311 -4695381.762 21997952.839 10 0 60449 31500.00000 0 14358586.328 -3367249.612 20841571.827 10 0 60449 32400.00000 0 16578278.254 -2283900.947 19281554.158 10 0 60449 33300.00000 0 18673788.462 -1449691.989 17348056.917 10 0 60449 34200.00000 0 20581187.834 -856682.985 15078462.512 10 0 60449 35100.00000 0 22241165.885 -485198.002 12516667.057 10 0 60449 36000.00000 0 23601400.494 -304883.213 9712242.965 10 0 60449 36900.00000 0 24618656.924 -276219.333 6719490.685 10 0 60449 37800.00000 0 25260528.566 -352424.778 3596396.805 10 0 60449 38700.00000 0 25506746.257 -481669.714 403517.755 10 0 60449 39600.00000 0 25350000.606 -609507.710 -2797189.800 10 0 60449 40500.00000 0 24796241.897 -681422.332 -5943569.497 10 0 60449 41400.00000 0 23864443.802 -645380.635 -8974473.398 10 0 60449 42300.00000 0 22585839.668 -454284.902 -11830953.892 10 0 60449 43200.00000 0 21002662.317 -68217.866 -14457415.685 10 0 60449 44100.00000 0 19166439.344 543614.963 -16802704.851 10 0 60449 45000.00000 0 17135914.753 1401329.617 -18821113.005 10 0 60449 45900.00000 0 14974683.674 2513262.248 -20473276.334 10 0 60449 46800.00000 0 12748639.084 3875370.411 -21726951.375 10 0 60449 47700.00000 0 10523337.543 5471164.290 -22557651.759 10 0 60449 48600.00000 0 8361394.338 7272172.616 -22949133.070 10 0 60449 49500.00000 0 6320017.226 9238925.419 -22893715.880 10 0 60449 50400.00000 0 4448782.145 11322413.671 -22392440.305 10 0 60449 51300.00000 0 2787743.931 13465965.680 -21455048.752 10 0 60449 52200.00000 0 1365960.932 15607462.178 -20099796.918 10 0 60449 53100.00000 0 200494.842 17681797.595 -18353096.592 10 0 60449 54000.00000 0 -704073.139 19623484.281 -16248997.177 10 0 60449 54900.00000 0 -1355590.633 21369290.283 -13828516.142 10 0 60449 55800.00000 0 -1773750.549 22860799.592 -11138831.840 10 0 60449 56700.00000 0 -1989001.971 24046787.024 -8232354.918 10 0 60449 57600.00000 0 -2041003.317 24885307.705 -5165697.197 10 0 60449 58500.00000 0 -1976685.068 25345413.266 -1998559.050 10 0 60449 59400.00000 0 -1848005.902 25408422.844 1207442.003 10 0 60449 60300.00000 0 -1709498.947 25068695.985 4389977.672 10 0 60449 61200.00000 0 -1615713.518 24333875.825 7487225.761 10 0 60449 62100.00000 0 -1618661.722 23224593.411 10439073.181 10 0 60449 63000.00000 0 -1765378.739 21773646.830 13188281.325 10 0 60449 63900.00000 0 -2095700.220 20024690.760 15681591.162 10 0 60449 64800.00000 0 -2640350.643 18030492.437 17870747.007 10 0 60449 65700.00000 0 -3419422.976 15850827.661 19713419.990 10 0 60449 66600.00000 0 -4441313.266 13550105.087 21174014.427 10 0 60449 67500.00000 0 -5702154.566 11194817.666 22224342.869 10 0 60449 68400.00000 0 -7185773.804 8850926.656 22844158.252 10 0 60449 69300.00000 0 -8864173.510 6581285.898 23021534.193 10 0 60449 70200.00000 0 -10698518.764 4443211.861 22753087.273 10 0 60449 71100.00000 0 -12640589.051 2486298.603 22044037.827 10 0 60449 72000.00000 0 -14634635.709 750566.614 20908108.472 10 0 60449 72900.00000 0 -16619569.010 -734979.355 19367262.267 10 0 60449 73800.00000 0 -18531385.405 -1953325.064 17451285.082 10 0 60449 74700.00000 0 -20305735.310 -2899914.826 15197219.359 10 0 60449 75600.00000 0 -21880525.826 -3582594.221 12648659.096 10 0 60449 76500.00000 0 -23198450.842 -4021030.450 9854918.352 10 0 60449 77400.00000 0 -24209343.530 -4245634.800 6870088.140 10 0 60449 78300.00000 0 -24872253.051 -4296032.467 3751998.755 10 0 60449 79200.00000 0 -25157158.253 -4219143.953 561106.719 10 0 60449 80100.00000 0 -25046245.802 -4066958.689 -2640672.685 10 0 60449 81000.00000 0 -24534698.073 -3894094.833 -5791164.951 10 0 60449 81900.00000 0 -23630956.393 -3755248.487 -8829144.666 10 0 60449 82800.00000 0 -22356447.141 -3702640.646 -11695528.773 10 0 60449 83700.00000 0 -20744780.801 -3783570.662 -14334531.100 10 0 60449 84600.00000 0 -18840456.246 -4038180.796 -16694755.054 10 0 60449 85500.00000 0 -16697123.564 -4497527.779 -18730202.464 99